EW6887 Weather Reports


time (UTC)temp
C
wind
direction
speed
KPH
gust
KPH
rain 1hr
cm
rain 24hr
cm
rain mn
cm
humidity
%
barometer
mb
20260507020105 13 269 0.0 0.0 0.00 0.00 0.00 78 1005.8
20260507014609 13 269 0.0 0.0 0.00 0.00 0.00 78 1005.6
20260507013052 13 246 0.0 0.0 0.00 0.00 0.00 78 1005.7
20260507011538 13 246 0.0 0.0 0.00 0.00 0.00 77 1005.6
20260507010028 13 287 0.0 0.0 0.00 0.00 0.00 77 1005.2
20260507004519 14 234 0.0 0.0 0.00 0.00 0.00 77 1005.1
20260507003013 14 244 0.0 0.0 0.00 0.00 0.00 76 1005.1
20260507001510 14 246 0.0 0.0 0.00 0.00 0.00 78 1004.7
20260507000059 14 244 0.0 0.0 0.00 0.00 0.00 82 1004.6
20260506234550 13 222 0.0 0.0 0.00 0.00 0.00 83 1004.8
20260506233054 13 209 0.0 0.0 0.00 0.00 0.00 84 1004.8
20260506231549 13 213 0.0 0.0 0.00 0.00 0.00 85 1004.8
20260506230047 13 187 0.0 0.0 0.00 0.00 0.00 85 1005.0
20260506224538 13 102 0.0 0.0 0.00 0.00 0.00 85 1005.2
20260506223031 13 177 0.0 0.0 0.00 0.00 0.00 83 1004.5
20260506221520 13 178 0.0 0.0 0.00 0.00 0.00 81 1004.3
20260506220012 14 194 0.0 0.0 0.00 0.00 0.00 78 1004.0
20260506214604 15 136 0.0 0.0 0.00 0.00 0.00 75 1003.8
20260506213056 15 321 0.0 0.0 0.00 0.00 0.00 75 1003.4
20260506211548 15 341 0.0 0.0 0.00 0.00 0.00 78 1003.2
20260506210049 14 341 0.0 0.0 0.00 0.00 0.00 81 1003.2
20260506204638 13 355 0.0 0.0 0.00 0.00 0.00 82 1003.2
20260506203025 14 300 0.0 0.0 0.00 0.00 0.00 82 1003.2
20260506201528 14 298 0.0 0.0 0.00 0.00 0.00 80 1003.3
20260506200019 14 228 0.0 0.0 0.00 0.00 0.00 79 1003.2
20260506194505 14 217 0.0 0.0 0.00 0.00 0.00 78 1003.2
20260506193058 14 238 0.0 0.0 0.00 0.00 0.00 80 1003.3
20260506191551 14 238 0.0 0.0 0.00 0.00 0.00 82 1003.6
20260506190045 14 233 0.0 0.0 0.00 0.00 0.00 81 1003.7
20260506184547 14 194 0.0 0.0 0.00 0.00 0.00 81 1003.8
20260506183026 15 221 0.0 0.0 0.00 0.00 0.00 82 1003.4
20260506181520 15 180 0.0 0.0 0.00 0.00 0.00 83 1003.3
20260506180013 15 252 0.0 0.0 0.00 0.00 0.00 82 1002.7
20260506174507 15 246 0.0 0.0 0.00 0.00 0.00 82 1002.4
20260506173118 15 243 0.0 0.0 0.00 0.00 0.00 83 1002.7
20260506171556 15 225 0.0 0.0 0.00 0.00 0.00 84 1002.6
20260506170050 15 245 0.0 0.0 0.00 0.00 0.00 84 1002.7
20260506164539 15 247 0.0 0.0 0.00 0.00 0.00 83 1003.2
20260506163114 16 197 0.0 0.0 0.00 0.00 0.00 81 1003.3
20260506161557 16 169 0.0 0.0 0.00 0.00 0.00 78 1002.7
20260506160038 17 209 0.0 0.0 0.00 0.00 0.00 72 1002.6
20260506154536 17 219 0.0 0.0 0.00 0.00 0.00 71 1003.0
20260506153020 18 176 0.0 0.0 0.00 0.00 0.00 67 1003.1
20260506151511 18 176 0.0 0.0 0.00 0.00 0.00 65 1003.3
20260506150059 18 209 0.0 0.0 0.00 0.00 0.00 61 1003.5
20260506144548 21 164 0.0 0.0 0.00 0.00 0.00 52 1003.6
20260506143042 21 331 0.0 0.0 0.00 0.00 0.00 47 1003.5
20260506141533 21 14 0.0 0.0 0.00 0.00 0.00 48 1003.5
20260506140123 21 69 0.0 0.0 0.00 0.00 0.00 47 1003.6
20260506134515 21 55 0.0 0.0 0.00 0.00 0.00 47 1003.7
20260506133006 21 13 0.0 0.0 0.00 0.00 0.00 46 1004.0
20260506131602 22 5 0.0 0.0 0.00 0.00 0.00 44 1004.2
20260506130053 22 79 0.0 0.0 0.00 0.00 0.00 44 1004.4
20260506124550 22 9 0.0 0.0 0.00 0.00 0.00 46 1004.6
20260506123048 22 124 0.0 0.0 0.00 0.00 0.00 47 1004.7
20260506121542 21 24 0.0 0.0 0.00 0.00 0.00 48 1004.7
20260506120005 21 25 0.0 0.0 0.00 0.00 0.00 48 1004.8
20260506114621 22 40 0.0 0.0 0.00 0.00 0.00 47 1005.0
20260506113053 21 19 0.0 0.0 0.00 0.00 0.00 49 1005.2
20260506111553 21 65 0.0 0.0 0.00 0.00 0.00 51 1005.2
20260506110050 20 83 0.0 0.0 0.00 0.00 0.00 51 1005.4
20260506104545 20 71 0.0 0.0 0.00 0.00 0.00 52 1005.6
20260506103036 20 102 0.0 0.0 0.00 0.00 0.00 53 1005.6
20260506101600 19 109 0.0 0.0 0.00 0.00 0.00 55 1005.7
20260506100053 19 52 0.0 0.0 0.00 0.00 0.00 55 1005.8
20260506094547 19 65 0.0 0.0 0.00 0.00 0.00 57 1005.8
20260506093101 18 107 0.0 0.0 0.00 0.00 0.00 59 1005.7
20260506091533 17 62 0.0 0.0 0.00 0.00 0.00 65 1005.8
20260506090025 17 360 0.0 0.0 0.00 0.00 0.00 62 1005.7
20260506084517 17 5 0.0 0.0 0.00 0.00 0.00 64 1005.6
20260506083008 17 57 0.0 0.0 0.00 0.00 0.00 67 1005.7
20260506081507 16 65 0.0 0.0 0.00 0.00 0.00 67 1005.7
20260506080111 16 360 0.0 0.0 0.00 0.00 0.00 67 1005.7
20260506073046 15 61 0.0 0.0 0.00 0.00 0.00 75 1005.7
20260506071539 15 70 0.0 0.0 0.00 0.00 0.00 78 1005.6
20260506061508 13 101 0.0 0.0 0.00 0.00 0.00 87 1005.5
20260506044521 12 10 0.0 0.0 0.00 0.00 0.00 91 1005.0
20260506043114 12 11 0.0 0.0 0.00 0.00 0.00 90 1004.9
20260506041505 12 59 0.0 0.0 0.00 0.00 0.00 90 1004.7
20260506034550 12 82 0.0 0.0 0.00 0.00 0.00 88 1004.6
20260506033043 13 38 0.0 0.0 0.00 0.00 0.00 85 1004.6
20260506031533 13 57 0.0 0.0 0.00 0.00 0.00 81 1004.4
20260506030025 13 207 0.0 0.0 0.00 0.00 0.00 79 1004.3
20260506024549 13 217 0.0 0.0 0.00 0.00 0.00 78 1003.9
20260506023052 13 355 0.0 0.0 0.00 0.00 0.00 77 1003.8
20260506021529 13 38 0.0 0.0 0.00 0.00 0.00 74 1004.0